Regional Weather Roundup
Issued by NWS

Home | Current Version | Previous Version | Text Only | Print | Product List | Glossary Off
Versions: 1 2 3 4 5 6 7 8 9 10 11 12 13 14 15 16 17 18 19 20 21 22 23 24 25 26 27 28 29 30 31 32 33 34 35 36 37 38 39 40 41 42 43 44 45 46 47 48 49 50

000
ASUS43 KLSX 281459
RWRMO

WEATHER SUMMARY FOR MISSOURI
NATIONAL WEATHER SERVICE SPRINGFIELD MO
1000 AM CDT MON JUL 28 2014

NOTE: "FAIR" INDICATES FEW OR NO CLOUDS BELOW 12,000 FEET WITH NO
       SIGNIFICANT WEATHER AND/OR OBSTRUCTIONS TO VISIBILITY.
       CURRENT SKY AND/OR WEATHER CONDITIONS ARE NOT AVAILABLE FOR
       CHILLICOTHE AND FARMINGTON.

MOZ001>031-035>038-043-044-053-054-281600-
...NORTHERN AND WESTERN MISSOURI...

CITY           SKY/WX    TMP DP  RH WIND       PRES   REMARKS
KANSAS CTY INT MOSUNNY   70  61  73 N7        30.22R
KANSAS C DTWN  SUNNY     71  60  68 VRB5      30.21R
LEE`S SUMMIT   SUNNY     70  59  68 NW7       30.21S
ST JOSEPH      PTSUNNY   68  61  78 N8        30.23R
CHILLICOTHE      N/A     70  59  68 N8        30.20S
KIRKSVILLE     CLOUDY    67  60  78 N9        30.20R

$$
MOZ066>068-077>081-088>096-101>105-281600-
...SOUTHWEST MISSOURI...

CITY           SKY/WX    TMP DP  RH WIND       PRES   REMARKS
SPRINGFIELD    SUNNY     74  58  57 N8        30.19R
JOPLIN         SUNNY     73  58  59 N7        30.22R

$$
MOZ032>034-039>042-045>050-055>058-069>072-281600-
...CENTRAL MISSOURI...

CITY           SKY/WX    TMP DP  RH WIND       PRES   REMARKS
COLUMBIA       MOSUNNY   72  61  68 N9        30.16R
JEFFERSON CITY MOSUNNY   73  61  65 VRB5      30.14S
ROLLA          SUNNY     72  59  63 N6        30.13S
SEDALIA        MOSUNNY   72  61  68 N6        30.19R
OSAGE BEACH    SUNNY     72  59  64 N6        30.16S

$$
MOZ051-052-059>065-281600-
...EAST CENTRAL MISSOURI...

CITY           SKY/WX    TMP DP  RH WIND       PRES   REMARKS
ST LOUIS INTL  PTSUNNY   73  62  68 N7        30.11S
SPIRIT OF STL  PTSUNNY   73  61  65 N8        30.11R
ST CHARLES     PTSUNNY   71  62  73 N8        30.10S

$$
MOZ072>076-082>087-097>100-106>115-281600-
...SOUTH CENTRAL AND SOUTHEAST MISSOURI...

CITY           SKY/WX    TMP DP  RH WIND       PRES   REMARKS
CAPE GIRARDEAU SUNNY     75  62  64 N7        30.08R
FARMINGTON     SUNNY     72  61  68 NW7       30.13S
POPLAR BLUFF   SUNNY     76  59  55 N5        30.09R
WEST PLAINS    SUNNY     74  60  61 N6        30.17R

$$


USA.gov is the U.S. government's official web portal to all federal, state and local government web resources and services.